Location: Unspecified
(17.6330°N, 0.0000°E)
Time: 16:14:20
(UTC+00:00)

Tiros 1 despin weight - Pass Details

Date: 15 August 2020
Orbit: 593 x 642 km, 48.2° (Epoch: 23 September)

Event Time Altitude Azimuth Distance (km) Brightness Sun altitude
Exits shadow 04:37:23 10° 306° (NW) 2,020 ? -15.7°
Reaches altitude 10° 04:37:43 10° 310° (NW) 1,988 ? -15.6°
Maximum altitude 04:38:41 11° 322° (NW) 1,947 ? -15.4°
Drops below altitude 10° 04:39:39 10° 334° (NNW) 1,982 ? -15.2°
Sets 04:44:01 0° 14° (NNE) 2,872 ? -14.2°
